| time (UTC) | temp C | wind direction | speed KPH | gust KPH | rain 1hr cm | rain 24hr cm | rain mn cm | humidity % | barometer mb |
| 20260506013814 | 17 | 301 | 0.0 | 0.0 | 0.00 | 0.00 | 0.00 | 76 | 1015.5 |
| 20260506013314 | 16 | 350 | 0.0 | 0.0 | 0.00 | 0.00 | 0.00 | 76 | 1015.6 |
| 20260506012825 | 16 | 338 | 0.0 | 0.0 | 0.00 | 0.00 | 0.00 | 77 | 1015.6 |
| 20260506012324 | 16 | 340 | 0.0 | 0.0 | 0.00 | 0.00 | 0.00 | 76 | 1015.6 |
| 20260506011827 | 16 | 100 | 0.0 | 3.2 | 0.00 | 0.00 | 0.00 | 77 | 1015.6 |
| 20260506011334 | 16 | 100 | 0.0 | 6.4 | 0.00 | 0.00 | 0.00 | 77 | 1015.6 |
| 20260506010817 | 16 | 302 | 0.0 | 1.6 | 0.00 | 0.00 | 0.00 | 76 | 1015.6 |
| 20260506010317 | 17 | 335 | 0.0 | 4.8 | 0.00 | 0.00 | 0.00 | 75 | 1015.5 |
| 20260506005827 | 16 | 200 | 0.0 | 8.0 | 0.00 | 0.00 | 0.00 | 76 | 1015.5 |
| 20260506005326 | 17 | 77 | 0.0 | 3.2 | 0.00 | 0.00 | 0.00 | 76 | 1015.5 |
| 20260506004829 | 16 | 54 | 0.0 | 0.0 | 0.00 | 0.00 | 0.00 | 78 | 1015.6 |
| 20260506004336 | 16 | 130 | 0.0 | 0.0 | 0.00 | 0.00 | 0.00 | 77 | 1015.7 |
| 20260506003819 | 16 | 100 | 0.0 | 0.0 | 0.00 | 0.00 | 0.00 | 77 | 1015.7 |
| 20260506003319 | 16 | 354 | 0.0 | 0.0 | 0.00 | 0.00 | 0.00 | 78 | 1015.6 |
| 20260506002829 | 16 | 354 | 0.0 | 0.0 | 0.00 | 0.00 | 0.00 | 79 | 1015.6 |
| 20260506002329 | 16 | 355 | 0.0 | 0.0 | 0.00 | 0.00 | 0.00 | 78 | 1015.7 |
| 20260506001812 | 16 | 349 | 0.0 | 0.0 | 0.00 | 0.00 | 0.00 | 79 | 1015.8 |
| 20260506001312 | 16 | 340 | 0.0 | 0.0 | 0.00 | 0.00 | 0.00 | 79 | 1015.8 |
| 20260506000822 | 16 | 359 | 0.0 | 1.6 | 0.00 | 0.00 | 0.00 | 80 | 1015.8 |
| 20260506000323 | 16 | 332 | 0.0 | 1.6 | 0.00 | 0.00 | 0.00 | 79 | 1015.8 |
| 20260505235831 | 16 | 287 | 0.0 | 0.0 | 0.00 | 0.00 | 0.00 | 79 | 1015.8 |
| 20260505235315 | 16 | 342 | 0.0 | 1.6 | 0.00 | 0.00 | 0.00 | 80 | 1015.9 |
| 20260505234818 | 15 | 342 | 0.0 | 1.6 | 0.00 | 0.00 | 0.00 | 80 | 1016.0 |
| 20260505234325 | 15 | 55 | 0.0 | 0.0 | 0.00 | 0.00 | 0.00 | 80 | 1016.1 |
| 20260505233912 | 15 | 327 | 0.0 | 0.0 | 0.00 | 0.00 | 0.00 | 81 | 1016.1 |
| 20260505233326 | 15 | 340 | 0.0 | 1.6 | 0.00 | 0.00 | 0.00 | 80 | 1016.2 |
| 20260505232829 | 15 | 335 | 0.0 | 1.6 | 0.00 | 0.00 | 0.00 | 80 | 1016.0 |
| 20260505232336 | 15 | 326 | 0.0 | 4.8 | 0.00 | 0.00 | 0.00 | 81 | 1016.1 |
| 20260505231907 | 15 | 15 | 0.0 | 6.4 | 0.00 | 0.00 | 0.00 | 81 | 1016.1 |
| 20260505231321 | 15 | 341 | 3.2 | 6.4 | 0.00 | 0.00 | 0.00 | 80 | 1016.1 |
| 20260505230825 | 15 | 326 | 1.6 | 6.4 | 0.00 | 0.00 | 0.00 | 81 | 1016.2 |
| 20260505230312 | 15 | 339 | 0.0 | 1.6 | 0.00 | 0.00 | 0.00 | 79 | 1016.1 |
| 20260505225822 | 16 | 333 | 0.0 | 1.6 | 0.00 | 0.00 | 0.00 | 79 | 1016.1 |
| 20260505225321 | 16 | 342 | 0.0 | 0.0 | 0.00 | 0.00 | 0.00 | 79 | 1016.2 |
| 20260505224832 | 16 | 307 | 0.0 | 0.0 | 0.00 | 0.00 | 0.00 | 78 | 1016.2 |
| 20260505224312 | 15 | 307 | 0.0 | 0.0 | 0.00 | 0.00 | 0.00 | 78 | 1016.3 |
| 20260505223814 | 16 | 333 | 0.0 | 0.0 | 0.00 | 0.00 | 0.00 | 78 | 1016.3 |
| 20260505223315 | 16 | 296 | 0.0 | 0.0 | 0.00 | 0.00 | 0.00 | 77 | 1016.4 |
| 20260505222824 | 16 | 334 | 0.0 | 0.0 | 0.00 | 0.00 | 0.00 | 77 | 1016.3 |
| 20260505222324 | 16 | 318 | 0.0 | 0.0 | 0.00 | 0.00 | 0.00 | 77 | 1016.3 |
| 20260505221834 | 16 | 318 | 0.0 | 0.0 | 0.00 | 0.00 | 0.00 | 77 | 1016.4 |
| 20260505221318 | 16 | 318 | 0.0 | 0.0 | 0.00 | 0.00 | 0.00 | 77 | 1016.4 |
| 20260505220821 | 15 | 318 | 0.0 | 0.0 | 0.00 | 0.00 | 0.00 | 78 | 1016.4 |
| 20260505220328 | 16 | 318 | 0.0 | 0.0 | 0.00 | 0.00 | 0.00 | 77 | 1016.5 |
| 20260505215831 | 16 | 176 | 0.0 | 0.0 | 0.00 | 0.00 | 0.00 | 77 | 1016.5 |
| 20260505215331 | 16 | 166 | 0.0 | 0.0 | 0.00 | 0.00 | 0.00 | 77 | 1016.5 |
| 20260505214814 | 16 | 352 | 0.0 | 0.0 | 0.00 | 0.00 | 0.00 | 77 | 1016.5 |
| 20260505214320 | 16 | 352 | 0.0 | 0.0 | 0.00 | 0.00 | 0.00 | 78 | 1016.5 |
| 20260505213823 | 15 | 234 | 0.0 | 0.0 | 0.00 | 0.00 | 0.00 | 78 | 1016.5 |
| 20260505213330 | 15 | 308 | 0.0 | 0.0 | 0.00 | 0.00 | 0.00 | 79 | 1016.5 |
| 20260505212814 | 15 | 338 | 0.0 | 0.0 | 0.00 | 0.00 | 0.00 | 78 | 1016.5 |
| 20260505211823 | 16 | 339 | 0.0 | 0.0 | 0.00 | 0.00 | 0.00 | 77 | 1016.5 |
| 20260505211337 | 16 | 174 | 0.0 | 0.0 | 0.00 | 0.00 | 0.00 | 78 | 1016.6 |
| 20260505210820 | 15 | 174 | 0.0 | 0.0 | 0.00 | 0.00 | 0.00 | 78 | 1016.6 |
| 20260505210320 | 15 | 344 | 0.0 | 4.8 | 0.00 | 0.03 | 0.00 | 77 | 1016.6 |
| 20260505205830 | 15 | 146 | 0.0 | 4.8 | 0.00 | 0.03 | 0.00 | 77 | 1016.6 |
| 20260505204820 | 15 | 19 | 0.0 | 1.6 | 0.00 | 0.03 | 0.00 | 78 | 1016.6 |
| 20260505204328 | 15 | 330 | 0.0 | 0.0 | 0.00 | 0.03 | 0.00 | 78 | 1016.6 |
| 20260505203850 | 15 | 4 | 0.0 | 1.6 | 0.00 | 0.03 | 0.00 | 79 | 1016.8 |
| 20260505203336 | 15 | 337 | 0.0 | 1.6 | 0.00 | 0.03 | 0.00 | 79 | 1016.8 |
| 20260505202838 | 15 | 357 | 0.0 | 1.6 | 0.00 | 0.03 | 0.00 | 78 | 1016.8 |
| 20260505202344 | 15 | 260 | 0.0 | 0.0 | 0.00 | 0.03 | 0.00 | 79 | 1016.8 |
| 20260505201853 | 15 | 316 | 0.0 | 0.0 | 0.00 | 0.03 | 0.00 | 80 | 1016.8 |
| 20260505201355 | 15 | 316 | 0.0 | 0.0 | 0.00 | 0.03 | 0.00 | 80 | 1016.9 |
| 20260505200837 | 15 | 136 | 0.0 | 0.0 | 0.00 | 0.03 | 0.00 | 80 | 1016.9 |
| 20260505200343 | 15 | 302 | 0.0 | 1.6 | 0.00 | 0.03 | 0.00 | 80 | 1016.9 |
| 20260505195852 | 15 | 300 | 0.0 | 3.2 | 0.00 | 0.03 | 0.00 | 80 | 1016.9 |
| 20260505195329 | 15 | 295 | 0.0 | 3.2 | 0.00 | 0.03 | 0.00 | 79 | 1016.9 |
| 20260505194818 | 15 | 323 | 0.0 | 3.2 | 0.00 | 0.03 | 0.00 | 79 | 1016.9 |
| 20260505194325 | 15 | 306 | 0.0 | 0.0 | 0.00 | 0.03 | 0.00 | 79 | 1016.9 |
| 20260505193827 | 15 | 319 | 0.0 | 0.0 | 0.00 | 0.03 | 0.00 | 79 | 1016.9 |
| 20260505193313 | 15 | 322 | 0.0 | 0.0 | 0.00 | 0.03 | 0.00 | 79 | 1016.9 |
| 20260505192824 | 15 | 315 | 0.0 | 0.0 | 0.00 | 0.03 | 0.00 | 78 | 1016.9 |
| 20260505192322 | 15 | 155 | 0.0 | 1.6 | 0.00 | 0.03 | 0.00 | 78 | 1016.9 |
| 20260505191831 | 15 | 158 | 0.0 | 1.6 | 0.00 | 0.03 | 0.00 | 78 | 1016.9 |
| 20260505191337 | 15 | 312 | 0.0 | 0.0 | 0.00 | 0.03 | 0.00 | 77 | 1016.9 |
| 20260505190820 | 15 | 196 | 0.0 | 0.0 | 0.00 | 0.03 | 0.00 | 78 | 1016.9 |
| 20260505190319 | 15 | 271 | 0.0 | 3.2 | 0.00 | 0.05 | 0.00 | 78 | 1016.9 |
| 20260505185825 | 15 | 312 | 0.0 | 3.2 | 0.00 | 0.05 | 0.00 | 79 | 1016.8 |
| 20260505185325 | 15 | 56 | 0.0 | 4.8 | 0.00 | 0.05 | 0.00 | 79 | 1016.9 |
| 20260505184837 | 15 | 99 | 0.0 | 6.4 | 0.00 | 0.05 | 0.00 | 80 | 1016.9 |
| 20260505184315 | 15 | 181 | 1.6 | 6.4 | 0.00 | 0.05 | 0.00 | 80 | 1016.9 |
| 20260505183818 | 14 | 310 | 0.0 | 1.6 | 0.00 | 0.05 | 0.00 | 81 | 1016.9 |
| 20260505183318 | 14 | 338 | 0.0 | 1.6 | 0.00 | 0.05 | 0.00 | 82 | 1017.0 |
| 20260505182825 | 14 | 345 | 0.0 | 1.6 | 0.00 | 0.05 | 0.00 | 82 | 1017.0 |
| 20260505182325 | 14 | 153 | 0.0 | 3.2 | 0.00 | 0.05 | 0.00 | 82 | 1016.9 |
| 20260505181835 | 14 | 298 | 0.0 | 6.4 | 0.00 | 0.05 | 0.00 | 81 | 1016.9 |
| 20260505181315 | 14 | 250 | 0.0 | 0.0 | 0.00 | 0.05 | 0.00 | 83 | 1016.9 |
| 20260505180818 | 13 | 253 | 0.0 | 0.0 | 0.00 | 0.05 | 0.00 | 83 | 1016.8 |
| 20260505180318 | 13 | 252 | 0.0 | 0.0 | 0.00 | 0.05 | 0.00 | 83 | 1016.8 |
| 20260505175828 | 13 | 331 | 0.0 | 0.0 | 0.00 | 0.05 | 0.00 | 85 | 1016.9 |
| 20260505175328 | 13 | 308 | 0.0 | 0.0 | 0.00 | 0.05 | 0.00 | 85 | 1016.9 |
| 20260505174838 | 13 | 75 | 0.0 | 0.0 | 0.00 | 0.05 | 0.00 | 85 | 1016.9 |
| 20260505174317 | 13 | 101 | 0.0 | 0.0 | 0.00 | 0.05 | 0.00 | 87 | 1016.9 |
| 20260505173820 | 12 | 101 | 0.0 | 0.0 | 0.00 | 0.05 | 0.00 | 87 | 1016.9 |
| 20260505173320 | 12 | 89 | 0.0 | 0.0 | 0.00 | 0.05 | 0.00 | 87 | 1016.9 |
| 20260505172830 | 12 | 141 | 0.0 | 0.0 | 0.00 | 0.05 | 0.00 | 87 | 1016.8 |
| 20260505172330 | 12 | 241 | 0.0 | 0.0 | 0.00 | 0.05 | 0.00 | 88 | 1016.9 |
| 20260505171813 | 12 | 131 | 0.0 | 0.0 | 0.00 | 0.05 | 0.00 | 88 | 1016.8 |
| 20260505171320 | 12 | 131 | 0.0 | 0.0 | 0.00 | 0.05 | 0.00 | 88 | 1016.7 |
| 20260505170823 | 12 | 176 | 0.0 | 0.0 | 0.00 | 0.05 | 0.00 | 88 | 1016.7 |
| 20260505170331 | 12 | 193 | 0.0 | 0.0 | 0.00 | 0.05 | 0.00 | 88 | 1016.6 |
| 20260505165812 | 12 | 248 | 0.0 | 0.0 | 0.00 | 0.05 | 0.00 | 88 | 1016.6 |
| 20260505165313 | 12 | 156 | 0.0 | 0.0 | 0.00 | 0.05 | 0.00 | 89 | 1016.5 |
| 20260505164816 | 12 | 167 | 0.0 | 0.0 | 0.00 | 0.05 | 0.00 | 88 | 1016.5 |
| 20260505164322 | 12 | 163 | 0.0 | 0.0 | 0.00 | 0.05 | 0.00 | 88 | 1016.5 |
| 20260505163825 | 12 | 167 | 0.0 | 3.2 | 0.00 | 0.05 | 0.00 | 88 | 1016.6 |
| 20260505163332 | 12 | 178 | 0.0 | 3.2 | 0.00 | 0.05 | 0.00 | 88 | 1016.5 |
| 20260505162815 | 12 | 198 | 0.0 | 0.0 | 0.00 | 0.05 | 0.00 | 88 | 1016.6 |
| 20260505162315 | 12 | 315 | 0.0 | 0.0 | 0.00 | 0.05 | 0.00 | 87 | 1016.5 |
| 20260505161818 | 12 | 141 | 0.0 | 0.0 | 0.00 | 0.05 | 0.00 | 88 | 1016.4 |
| 20260505161325 | 12 | 141 | 0.0 | 0.0 | 0.00 | 0.05 | 0.00 | 88 | 1016.4 |
| 20260505160828 | 12 | 305 | 0.0 | 0.0 | 0.00 | 0.05 | 0.00 | 87 | 1016.3 |
| 20260505160334 | 12 | 158 | 0.0 | 0.0 | 0.00 | 0.05 | 0.00 | 88 | 1016.3 |
| 20260505153317 | 12 | 133 | 0.0 | 3.2 | 0.00 | 0.05 | 0.00 | 90 | 1016.3 |
| 20260505152827 | 11 | 204 | 0.0 | 1.6 | 0.00 | 0.05 | 0.00 | 90 | 1016.3 |
| 20260505152312 | 11 | 168 | 0.0 | 0.0 | 0.00 | 0.05 | 0.00 | 91 | 1016.3 |
| 20260505151815 | 11 | 214 | 0.0 | 0.0 | 0.00 | 0.05 | 0.00 | 91 | 1016.3 |
| 20260505151322 | 11 | 190 | 0.0 | 0.0 | 0.00 | 0.05 | 0.00 | 91 | 1016.3 |
| 20260505150812 | 11 | 220 | 0.0 | 0.0 | 0.00 | 0.05 | 0.00 | 91 | 1016.3 |
| 20260505150330 | 11 | 160 | 0.0 | 1.6 | 0.00 | 0.05 | 0.00 | 92 | 1016.2 |
| 20260505140316 | 10 | 201 | 0.0 | 1.6 | 0.00 | 0.05 | 0.00 | 93 | 1015.6 |
| 20260505124816 | 10 | 82 | 0.0 | 0.0 | 0.00 | 0.05 | 0.00 | 92 | 1015.3 |
| 20260505124322 | 10 | 82 | 0.0 | 0.0 | 0.00 | 0.05 | 0.00 | 92 | 1015.2 |
| 20260505123821 | 10 | 207 | 0.0 | 0.0 | 0.00 | 0.05 | 0.00 | 92 | 1015.2 |
| 20260505123327 | 10 | 207 | 0.0 | 0.0 | 0.00 | 0.05 | 0.00 | 92 | 1015.1 |
| 20260505122835 | 10 | 207 | 0.0 | 0.0 | 0.00 | 0.05 | 0.00 | 92 | 1015.2 |
| 20260505122314 | 10 | 124 | 0.0 | 0.0 | 0.00 | 0.05 | 0.00 | 92 | 1015.1 |
| 20260505121823 | 10 | 165 | 0.0 | 0.0 | 0.00 | 0.05 | 0.00 | 92 | 1015.1 |
| 20260505121329 | 10 | 195 | 0.0 | 0.0 | 0.00 | 0.05 | 0.00 | 92 | 1015.1 |
| 20260505120838 | 10 | 63 | 0.0 | 0.0 | 0.00 | 0.05 | 0.00 | 92 | 1015.1 |
| 20260505120316 | 10 | 63 | 0.0 | 0.0 | 0.00 | 0.05 | 0.00 | 92 | 1015.1 |
| 20260505115819 | 10 | 63 | 0.0 | 0.0 | 0.00 | 0.05 | 0.00 | 92 | 1015.1 |
| 20260505115326 | 10 | 63 | 0.0 | 0.0 | 0.00 | 0.05 | 0.00 | 92 | 1015.0 |
| 20260505114829 | 10 | 63 | 0.0 | 0.0 | 0.00 | 0.05 | 0.00 | 92 | 1015.1 |
| 20260505114336 | 10 | 63 | 0.0 | 0.0 | 0.00 | 0.05 | 0.00 | 92 | 1015.1 |
| 20260505113819 | 10 | 63 | 0.0 | 0.0 | 0.00 | 0.05 | 0.00 | 93 | 1015.1 |
| 20260505113319 | 10 | 103 | 0.0 | 0.0 | 0.00 | 0.05 | 0.00 | 92 | 1015.0 |
| 20260505112822 | 10 | 139 | 0.0 | 0.0 | 0.00 | 0.05 | 0.00 | 93 | 1015.0 |
| 20260505112329 | 10 | 144 | 0.0 | 0.0 | 0.00 | 0.05 | 0.00 | 93 | 1015.1 |
| 20260505111832 | 10 | 175 | 0.0 | 0.0 | 0.00 | 0.05 | 0.00 | 93 | 1015.1 |
| 20260505111311 | 10 | 85 | 0.0 | 0.0 | 0.00 | 0.05 | 0.00 | 93 | 1015.0 |
| 20260505110821 | 10 | 85 | 0.0 | 0.0 | 0.00 | 0.05 | 0.00 | 93 | 1014.9 |
| 20260505110321 | 10 | 85 | 0.0 | 0.0 | 0.00 | 0.05 | 0.00 | 93 | 1014.9 |
| 20260505101818 | 10 | 167 | 0.0 | 0.0 | 0.00 | 0.05 | 0.00 | 93 | 1014.5 |
| 20260505101318 | 10 | 14 | 0.0 | 0.0 | 0.00 | 0.05 | 0.00 | 93 | 1014.5 |
| 20260505100828 | 10 | 136 | 0.0 | 4.8 | 0.00 | 0.05 | 0.00 | 93 | 1014.5 |
| 20260505100328 | 10 | 165 | 0.0 | 4.8 | 0.00 | 0.05 | 0.00 | 93 | 1014.5 |
| 20260505095838 | 10 | 156 | 0.0 | 1.6 | 0.00 | 0.05 | 0.00 | 93 | 1014.5 |
| 20260505095317 | 10 | 134 | 0.0 | 6.4 | 0.00 | 0.05 | 0.00 | 93 | 1014.6 |
| 20260505094819 | 10 | 145 | 0.0 | 6.4 | 0.00 | 0.05 | 0.00 | 93 | 1014.6 |
| 20260505094319 | 10 | 160 | 0.0 | 3.2 | 0.00 | 0.05 | 0.00 | 93 | 1014.6 |
| 20260505093813 | 10 | 200 | 0.0 | 0.0 | 0.00 | 0.05 | 0.00 | 92 | 1014.6 |
| 20260505093320 | 10 | 123 | 0.0 | 0.0 | 0.00 | 0.05 | 0.00 | 92 | 1014.4 |
| 20260505092331 | 10 | 38 | 0.0 | 0.0 | 0.00 | 0.05 | 0.00 | 92 | 1014.3 |
| 20260505091814 | 10 | 148 | 0.0 | 0.0 | 0.00 | 0.05 | 0.00 | 92 | 1014.4 |
| 20260505091314 | 10 | 196 | 0.0 | 0.0 | 0.00 | 0.05 | 0.00 | 92 | 1014.2 |
| 20260505090823 | 10 | 162 | 0.0 | 0.0 | 0.00 | 0.05 | 0.00 | 92 | 1014.2 |
| 20260505090325 | 10 | 191 | 0.0 | 3.2 | 0.00 | 0.05 | 0.00 | 92 | 1014.2 |
| 20260505085827 | 10 | 178 | 0.0 | 4.8 | 0.00 | 0.05 | 0.00 | 91 | 1014.1 |
| 20260505085313 | 11 | 157 | 1.6 | 4.8 | 0.00 | 0.05 | 0.00 | 91 | 1014.1 |
| 20260505084822 | 11 | 134 | 0.0 | 6.4 | 0.00 | 0.05 | 0.00 | 91 | 1014.1 |
| 20260505083839 | 11 | 199 | 1.6 | 6.4 | 0.00 | 0.05 | 0.00 | 91 | 1014.1 |
| 20260505083318 | 11 | 141 | 1.6 | 6.4 | 0.00 | 0.05 | 0.00 | 90 | 1014.1 |
| 20260505082827 | 11 | 182 | 1.6 | 3.2 | 0.00 | 0.05 | 0.00 | 90 | 1014.1 |
| 20260505082353 | 11 | 181 | 0.0 | 3.2 | 0.00 | 0.05 | 0.00 | 90 | 1014.0 |
| 20260505081835 | 11 | 191 | 0.0 | 4.8 | 0.00 | 0.05 | 0.00 | 90 | 1014.0 |
| 20260505081341 | 11 | 153 | 0.0 | 4.8 | 0.00 | 0.05 | 0.00 | 90 | 1014.1 |
| 20260505080850 | 11 | 179 | 0.0 | 1.6 | 0.00 | 0.05 | 0.00 | 90 | 1014.0 |
| 20260505080349 | 11 | 157 | 0.0 | 0.0 | 0.00 | 0.05 | 0.00 | 90 | 1014.0 |
| 20260505075341 | 11 | 94 | 0.0 | 1.6 | 0.00 | 0.05 | 0.00 | 90 | 1013.9 |
| 20260505074850 | 11 | 146 | 0.0 | 0.0 | 0.00 | 0.05 | 0.00 | 90 | 1013.9 |
| 20260505074357 | 11 | 134 | 0.0 | 0.0 | 0.00 | 0.05 | 0.00 | 89 | 1013.8 |
| 20260505073818 | 11 | 203 | 0.0 | 6.4 | 0.00 | 0.05 | 0.00 | 89 | 1013.7 |
| 20260505073318 | 11 | 165 | 0.0 | 6.4 | 0.00 | 0.05 | 0.00 | 89 | 1013.5 |
| 20260505072821 | 12 | 210 | 0.0 | 3.2 | 0.00 | 0.05 | 0.00 | 88 | 1013.5 |
| 20260505072328 | 12 | 196 | 0.0 | 4.8 | 0.00 | 0.05 | 0.00 | 88 | 1013.4 |
| 20260505071317 | 12 | 141 | 3.2 | 11.3 | 0.00 | 0.05 | 0.00 | 87 | 1013.3 |
| 20260505070827 | 12 | 176 | 0.0 | 4.8 | 0.00 | 0.05 | 0.00 | 87 | 1013.3 |
| 20260505070414 | 12 | 198 | 0.0 | 4.8 | 0.00 | 0.05 | 0.05 | 87 | 1013.3 |
| 20260505065819 | 12 | 200 | 0.0 | 8.0 | 0.00 | 0.05 | 0.05 | 87 | 1013.3 |
| 20260505065319 | 12 | 203 | 1.6 | 8.0 | 0.00 | 0.05 | 0.05 | 87 | 1013.3 |
| 20260505064829 | 12 | 179 | 0.0 | 3.2 | 0.00 | 0.05 | 0.05 | 87 | 1013.2 |
| 20260505064329 | 12 | 200 | 0.0 | 3.2 | 0.00 | 0.05 | 0.05 | 87 | 1013.1 |
| 20260505063840 | 12 | 171 | 0.0 | 6.4 | 0.00 | 0.05 | 0.05 | 87 | 1013.0 |
| 20260505063319 | 12 | 167 | 0.0 | 9.7 | 0.00 | 0.05 | 0.05 | 87 | 1012.9 |
| 20260505062822 | 12 | 252 | 0.0 | 9.7 | 0.00 | 0.05 | 0.05 | 87 | 1012.9 |
| 20260505062322 | 12 | 212 | 1.6 | 6.4 | 0.00 | 0.05 | 0.05 | 86 | 1012.9 |
| 20260505061832 | 13 | 153 | 0.0 | 3.2 | 0.00 | 0.05 | 0.05 | 86 | 1012.8 |
| 20260505061331 | 13 | 162 | 0.0 | 3.2 | 0.00 | 0.05 | 0.05 | 86 | 1012.7 |
| 20260505060813 | 13 | 167 | 0.0 | 0.0 | 0.00 | 0.05 | 0.05 | 86 | 1012.8 |
| 20260505060320 | 13 | 167 | 0.0 | 0.0 | 0.00 | 0.05 | 0.05 | 85 | 1012.7 |
| 20260505055823 | 13 | 167 | 0.0 | 0.0 | 0.00 | 0.05 | 0.05 | 85 | 1012.8 |
| 20260505055323 | 13 | 158 | 0.0 | 0.0 | 0.00 | 0.05 | 0.05 | 85 | 1012.7 |
| 20260505054833 | 13 | 125 | 0.0 | 0.0 | 0.00 | 0.05 | 0.05 | 84 | 1012.7 |
| 20260505054400 | 14 | 30 | 0.0 | 0.0 | 0.00 | 0.05 | 0.05 | 84 | 1012.8 |
| 20260505053818 | 14 | 29 | 0.0 | 0.0 | 0.00 | 0.05 | 0.05 | 84 | 1012.6 |
| 20260505053405 | 14 | 51 | 0.0 | 0.0 | 0.00 | 0.05 | 0.05 | 84 | 1012.6 |
| 20260505052830 | 15 | 103 | 0.0 | 0.0 | 0.00 | 0.05 | 0.05 | 83 | 1012.5 |
| 20260505052349 | 15 | 103 | 0.0 | 0.0 | 0.00 | 0.05 | 0.05 | 82 | 1012.5 |
| 20260505051838 | 15 | 110 | 0.0 | 0.0 | 0.00 | 0.05 | 0.05 | 81 | 1012.5 |
| 20260505051336 | 15 | 61 | 0.0 | 0.0 | 0.00 | 0.05 | 0.05 | 81 | 1012.5 |
| 20260505050841 | 16 | 68 | 0.0 | 0.0 | 0.00 | 0.05 | 0.05 | 80 | 1012.4 |
| 20260505050347 | 16 | 37 | 0.0 | 0.0 | 0.00 | 0.05 | 0.05 | 79 | 1012.4 |
| 20260505041313 | 17 | 304 | 0.0 | 0.0 | 0.00 | 0.05 | 0.05 | 75 | 1011.7 |
| 20260505040822 | 17 | 304 | 0.0 | 0.0 | 0.00 | 0.05 | 0.05 | 74 | 1011.8 |
| 20260505040322 | 17 | 281 | 0.0 | 0.0 | 0.00 | 0.05 | 0.05 | 74 | 1011.7 |
| 20260505035833 | 17 | 333 | 0.0 | 0.0 | 0.00 | 0.05 | 0.05 | 74 | 1011.6 |
| 20260505035312 | 18 | 248 | 0.0 | 0.0 | 0.00 | 0.05 | 0.05 | 74 | 1011.5 |
| 20260505034815 | 18 | 25 | 0.0 | 0.0 | 0.00 | 0.05 | 0.05 | 74 | 1011.4 |
| 20260505034315 | 18 | 323 | 0.0 | 0.0 | 0.00 | 0.05 | 0.05 | 73 | 1011.3 |
| 20260505033822 | 18 | 298 | 0.0 | 0.0 | 0.00 | 0.05 | 0.05 | 73 | 1011.2 |
| 20260505033322 | 18 | 298 | 0.0 | 4.8 | 0.00 | 0.05 | 0.05 | 72 | 1011.2 |
| 20260505032832 | 18 | 162 | 1.6 | 4.8 | 0.00 | 0.05 | 0.05 | 72 | 1011.2 |
| 20260505032312 | 18 | 148 | 0.0 | 3.2 | 0.00 | 0.05 | 0.05 | 73 | 1011.1 |
| 20260505031815 | 19 | 173 | 0.0 | 6.4 | 0.00 | 0.05 | 0.05 | 72 | 1011.1 |
| 20260505031315 | 19 | 139 | 0.0 | 6.4 | 0.00 | 0.05 | 0.05 | 72 | 1011.1 |
| 20260505030825 | 19 | 343 | 0.0 | 6.4 | 0.00 | 0.05 | 0.05 | 73 | 1011.0 |
| 20260505030322 | 20 | 132 | 0.0 | 6.4 | 0.00 | 0.05 | 0.05 | 72 | 1010.9 |
| 20260505025832 | 20 | 86 | 0.0 | 1.6 | 0.00 | 0.05 | 0.05 | 72 | 1010.9 |
| 20260505025316 | 20 | 58 | 0.0 | 3.2 | 0.00 | 0.05 | 0.05 | 72 | 1010.8 |
| 20260505024818 | 20 | 14 | 0.0 | 4.8 | 0.00 | 0.05 | 0.05 | 72 | 1010.8 |
| 20260505024325 | 20 | 51 | 0.0 | 4.8 | 0.00 | 0.05 | 0.05 | 71 | 1010.8 |
| 20260505023828 | 20 | 307 | 0.0 | 1.6 | 0.00 | 0.05 | 0.05 | 71 | 1010.8 |
| 20260505023328 | 20 | 310 | 0.0 | 0.0 | 0.00 | 0.05 | 0.05 | 71 | 1010.7 |
| 20260505022838 | 20 | 310 | 0.0 | 4.8 | 0.00 | 0.05 | 0.05 | 71 | 1010.7 |
| 20260505022318 | 21 | 314 | 0.0 | 6.4 | 0.00 | 0.05 | 0.05 | 70 | 1010.7 |
| 20260505021821 | 21 | 181 | 0.0 | 12.9 | 0.00 | 0.05 | 0.05 | 70 | 1010.8 |
| 20260505021328 | 21 | 136 | 1.6 | 12.9 | 0.00 | 0.05 | 0.05 | 70 | 1010.7 |
| 20260505020831 | 21 | 168 | 0.0 | 4.8 | 0.00 | 0.05 | 0.05 | 70 | 1010.8 |
| 20260505020311 | 21 | 180 | 1.6 | 4.8 | 0.00 | 0.05 | 0.05 | 70 | 1010.7 |
| 20260505015814 | 21 | 49 | 0.0 | 6.4 | 0.00 | 0.05 | 0.05 | 70 | 1010.7 |
| 20260505015321 | 21 | 112 | 0.0 | 6.4 | 0.00 | 0.05 | 0.05 | 69 | 1010.7 |
| 20260505014824 | 21 | 206 | 0.0 | 4.8 | 0.00 | 0.05 | 0.05 | 69 | 1010.7 |
| 20260505014331 | 21 | 127 | 0.0 | 4.8 | 0.00 | 0.05 | 0.05 | 68 | 1010.7 |